Main page
METAR-TAF:

METAR-TAF

Airports :

Rajmata Vijaya Raje Scindia Airport

Gwalior, India

latitude: 26-17-36N, longitude: 78-13-40E, elevation: 188 m

Current weather observation

The report was made 2 hours and 9 minutes ago, at 00:00 UTC
Wind 2 kt from the Northwest
Temperature 17°C
Humidity 88%
Pressure 1014 hPa
Visibility: 3000 m
haze

METAR: VIGR 160000Z 32002KT 3000 HZ NSC 17/15 Q1014

Time: 07:39 (02:09 UTC)


TAF: missing

Weather observations and forecasts of more than 4000 airports (METAR and TAF reports).

The available stations are represented by yellow and red dots on the map.

Hover mouse over dot to see the name of the station.

Then click to see weather observations and forecasts.

To change the map : click on the green buttons with a black cross to zoom in, on the green button with a dash to zoom out, or on the green arrows for adjacent maps.


METAR-TAF: